Regional Weather Roundup
Issued by NWS Charleston, WV

Home | Current Version | Previous Version | Graphics & Text | Print | Product List | Glossary On
Versions: 1 2 3 4 5 6 7 8 9 10 11 12 13 14 15 16 17 18 19 20 21 22 23 24 25 26 27 28 29 30 31 32 33 34 35 36 37 38 39 40 41 42 43 44 45 46 47 48 49 50
000
ASUS41 KRLX 210910
RWRRLX
West Virginia Regional Weather Roundup
National Weather Service Charleston WV
500 AM EDT TUE APR 21 2015

Note: "fair" indicates few or no clouds below 12,000 feet with no
significant weather and/or obstructions to visibility.

WVZ003-211000-
Northern Panhandle of West Virginia

CITY           SKY/WX    TMP DP  RH WIND       PRES   REMARKS
WHEELING       NOT AVBL
$$

WVZ009-211000-
Northwest West Virginia

CITY           SKY/WX    TMP DP  RH WIND       PRES   REMARKS
PARKERSBURG    PTCLDY    47  33  58 W8        29.82R
$$

WVZ006-211000-
Western West Virginia

CITY           SKY/WX    TMP DP  RH WIND       PRES   REMARKS
HUNTINGTON     PTCLDY    47  36  65 SW7       29.84R
$$

WVZ015-211000-
West Central West Virginia

CITY           SKY/WX    TMP DP  RH WIND       PRES   REMARKS
CHARLESTON     CLOUDY    50  32  50 W8        29.83R
$$

WVZ022-031-211000-
North Central West Virginia

CITY           SKY/WX    TMP DP  RH WIND       PRES   REMARKS
CLARKSBURG     PTCLDY    44  36  73 SW6       29.76S
MORGANTOWN     MOCLDY    48  36  63 SW6       29.75R
$$

WVZ025-035-042-045-211000-
Southern West Virginia

CITY           SKY/WX    TMP DP  RH WIND       PRES   REMARKS
BECKLEY        MOCLDY    43  38  82 NW9       29.82R
LOGAN          CLOUDY    48  36  61 SW9G18    29.81S
BLUEFIELD      MOCLDY    46  38  73 W12       29.83R
LEWISBURG      MOCLDY    47  37  66 W7        29.80S
$$

WVZ047-211000-
Northern Mountains of West Virginia

CITY           SKY/WX    TMP DP  RH WIND       PRES   REMARKS
ELKINS         MOCLDY    44  36  73 MISG      29.78S
$$

WVZ052-211000-
Eastern Panhandle of West Virginia

CITY           SKY/WX    TMP DP  RH WIND       PRES   REMARKS
MARTINSBURG    MOCLDY    52  43  71 NW7       29.72R
PETERSBURG     MOCLDY    50  32  51 CALM      29.77R
$$


USA.gov is the U.S. government's official web portal to all federal, state and local government web resources and services.